GW6451 Weather Reports


time (UTC)temp
C
wind
direction
speed
KPH
gust
KPH
rain 1hr
cm
rain 24hr
cm
rain mn
cm
humidity
%
barometer
mb
20260503030541 11 200 3.2 6.4 0.00 0.00 0.00 52 1012.9
20260503025522 11 204 3.2 6.4 0.00 0.00 0.00 50 1012.9
20260503024603 11 209 3.2 6.4 0.00 0.00 0.00 50 1013.0
20260503023538 11 213 3.2 4.8 0.00 0.00 0.00 50 1013.0
20260503022527 -17 212 4.8 8.0 0.00 0.00 0.00
20260503021529 12 207 4.8 8.0 0.00 0.00 0.00 49 1013.0
20260503020520 12 214 4.8 6.4 0.00 0.00 0.00 47 1013.0
20260503015520 12 222 3.2 4.8 0.00 0.00 0.00 47 1013.0
20260503014521 12 226 4.8 6.4 0.00 0.00 0.00 47 1013.0
20260503013527 12 233 4.8 8.0 0.00 0.00 0.00 45 1012.9
20260503012518 13 224 4.8 8.0 0.00 0.00 0.00 45 1012.9
20260503011518 13 239 4.8 8.0 0.00 0.00 0.00 44 1012.9
20260503010519 13 247 4.8 9.7 0.00 0.00 0.00 43 1013.0
20260503005522 13 241 6.4 11.3 0.00 0.00 0.00 43 1013.0
20260503004534 -17 240 6.4 11.3 0.00 0.00 0.00
20260503003531 14 255 9.7 16.1 0.00 0.00 0.00 42 1013.0
20260503002542 15 256 9.7 14.5 0.00 0.00 0.00 39 1013.0
20260503001539 15 246 8.0 14.5 0.00 0.00 0.00 39 1013.1
20260503000539 15 242 8.0 16.1 0.00 0.00 0.00 38 1013.1
20260502235520 15 239 11.3 17.7 0.00 0.00 0.00 38 1013.3
20260502234520 15 250 9.7 14.5 0.00 0.00 0.00 38 1013.5
20260502233527 15 238 9.7 12.9 0.00 0.00 0.00 38 1013.5
20260502232537 15 245 9.7 16.1 0.00 0.00 0.00 36 1013.7
20260502231558 15 248 9.7 14.5 0.00 0.00 0.00 35 1013.7
20260502230520 15 253 11.3 17.7 0.00 0.00 0.00 36 1013.7
20260502225520 15 242 11.3 19.3 0.00 0.00 0.00 35 1013.7
20260502224533 -17 236 11.3 17.7 0.00 0.00 0.00
20260502223539 16 267 9.7 16.1 0.00 0.00 0.00 36 1014.1
20260502222538 15 254 11.3 20.9 0.00 0.00 0.00 35 1014.2
20260502221541 -17 256 11.3 20.9 0.00 0.00 0.00
20260502220518 15 275 9.7 17.7 0.00 0.00 0.00 36 1014.4
20260502215519 14 255 11.3 16.1 0.00 0.00 0.00 35 1014.6
20260502214542 14 240 9.7 17.7 0.00 0.00 0.00 36 1014.6
20260502213522 15 254 12.9 20.9 0.00 0.00 0.00 35 1014.7
20260502212707 15 273 11.3 20.9 0.00 0.00 0.00 35 1014.8
20260502211519 15 267 11.3 16.1 0.00 0.00 0.00 34 1014.9
20260502210522 15 269 12.9 17.7 0.00 0.00 0.00 35 1015.0
20260502205552 14 255 12.9 19.3 0.00 0.00 0.00 33 1015.2
20260502204523 14 269 11.3 22.5 0.00 0.00 0.00 35 1015.4
20260502203518 14 268 14.5 20.9 0.00 0.00 0.00 35 1015.5
20260502202520 14 225 11.3 19.3 0.00 0.00 0.00 36 1015.6
20260502201520 14 267 11.3 22.5 0.00 0.00 0.00 36 1015.9
20260502200519 14 273 12.9 24.1 0.00 0.00 0.00 36 1016.0
20260502195526 13 269 12.9 20.9 0.00 0.00 0.00 37 1016.2
20260502194518 13 253 9.7 17.7 0.00 0.00 0.00 38 1016.3
20260502193518 13 282 12.9 19.3 0.00 0.00 0.00 39 1016.4
20260502192519 13 267 12.9 19.3 0.00 0.00 0.00 38 1016.7
20260502191522 13 289 12.9 20.9 0.00 0.00 0.00 39 1016.8
20260502190519 13 267 12.9 19.3 0.00 0.00 0.00 40 1017.0
20260502185523 -17 263 12.9 20.9 0.00 0.00 0.00
20260502184521 -17 284 12.9 20.9 0.00 0.00 0.00
20260502183520 12 291 11.3 17.7 0.00 0.00 0.00 41 1017.4
20260502182522 12 243 11.3 19.3 0.00 0.00 0.00 39 1017.4
20260502181519 12 268 9.7 16.1 0.00 0.00 0.00 40 1017.6
20260502180520 12 250 11.3 19.3 0.00 0.00 0.00 38 1017.6
20260502163521 -17 284 11.3 20.9 0.00 0.00 0.00
20260502162528 11 316 9.7 16.1 0.00 0.00 0.00 41 1018.6
20260502161518 11 302 9.7 14.5 0.00 0.00 0.00 43 1018.8
20260502160518 11 259 12.9 22.5 0.00 0.00 0.00 40 1018.8
20260502151519 -17 271 11.3 20.9 0.00 0.00 0.00
20260502150520 10 272 11.3 19.3 0.00 0.00 0.00 48 1019.1
20260502130542 6 240 6.4 11.3 0.00 0.00 0.00 57 1019.7
20260502123529 -17 261 8.0 16.1 0.00 0.00 0.00
20260502122600 4 258 8.0 12.9 0.00 0.00 0.00 59 1019.5
20260502121522 3 251 6.4 11.3 0.00 0.00 0.00 59 1019.5
20260502120524 3 242 6.4 8.0 0.00 0.00 0.00 61 1019.5
20260502115527 3 243 4.8 8.0 0.00 0.00 0.00 61 1019.4
20260502114607 3 239 3.2 6.4 0.00 0.00 0.00 60 1019.3
20260502113529 3 237 4.8 8.0 0.00 0.00 0.00 60 1019.2
20260502112533 3 229 4.8 6.4 0.00 0.00 0.00 59 1019.1
20260502111545 3 242 4.8 8.0 0.00 0.00 0.00 58 1019.1
20260502110530 3 240 4.8 6.4 0.00 0.00 0.00 59 1019.1
20260502105528 2 278 3.2 4.8 0.00 0.00 0.00 59 1019.1
20260502104529 2 279 4.8 4.8 0.00 0.00 0.00 60 1019.1
20260502103631 2 250 3.2 4.8 0.00 0.00 0.00 60 1019.1
20260502102529 -17 245 3.2 4.8 0.00 0.00 0.00
20260502100529 3 256 0.0 1.6 0.00 0.00 0.00 58 1019.1
20260502091531 3 0.0 0.0 0.00 0.00 0.00 59 1019.0
20260502090530 3 175 0.0 1.6 0.00 0.00 0.00 57 1019.0
20260502071519 3 188 0.0 3.2 0.00 0.00 0.00 57 1019.1
20260502070519 3 185 0.0 1.6 0.00 0.00 0.00 57 1019.1
20260502065540 3 185 0.0 1.6 0.00 0.00 0.00 59 1019.2
20260502064526 3 0.0 0.0 0.00 0.00 0.00 58 1019.2
20260502063530 3 103 0.0 1.6 0.00 0.00 0.00 60 1019.3
20260502062529 3 0.0 0.0 0.00 0.00 0.00 58 1019.3
20260502061521 3 0.0 0.0 0.00 0.00 0.00 58 1019.4
20260502060520 3 0.0 0.0 0.00 0.00 0.00 57 1019.4
20260502055537 3 0.0 0.0 0.00 0.00 0.00 57 1019.3
20260502054517 3 67 0.0 1.6 0.00 0.00 0.00 56 1019.3
20260502053533 4 0.0 0.0 0.00 0.00 0.00 55 1019.3
20260502052521 4 65 0.0 1.6 0.00 0.00 0.00 54 1019.3
20260502051544 4 0 0.0 0.0 0.00 0.00 0.00 53 1019.2
20260502050523 4 0.0 0.0 0.00 0.00 0.00 54 1019.2
20260502045538 5 0.0 0.0 0.00 0.00 0.00 54 1019.1
20260502044522 5 109 0.0 0.0 0.00 0.00 0.00 54 1019.1
20260502043530 -17 7 0.0 1.6 0.00 0.00 0.00
20260502042535 5 68 0.0 1.6 0.00 0.00 0.00 51 1019.1
20260502041534 5 351 0.0 0.0 0.00 0.00 0.00 51 1019.1
20260502040522 5 30 0.0 1.6 0.00 0.00 0.00 55 1019.0
20260502035540 5 0.0 0.0 0.00 0.00 0.00 55 1019.0
20260502034519 5 0.0 0.0 0.00 0.00 0.00 54 1019.0
20260502033519 5 47 0.0 1.6 0.00 0.00 0.00 54 1019.0
20260502032520 5 0.0 0.0 0.00 0.00 0.00 54 1019.0
20260502031520 5 0.0 0.0 0.00 0.00 0.00 52 1019.0